Back to provider search

HCPCS Code detail

66982

Complex removal of cataract with insertion of prosthetic lens

Latest data year CY2023

Ranking basis

Providers are ordered to identify the highest Medicare FFS volume for this code. Higher volume is a utilization signal only and is not presented as a quality, outcomes, or appropriateness measure.

Providers billing code3,250Distinct nationwide ophthalmology providers in Medicare FFS
Services for code114,653Total selected-code Medicare FFS services
Beneficiaries79,293Beneficiaries tied to selected-code rows
Average allowedBy providerDisplayed per row from Medicare allowed amount

Code-specific provider rankings

Filter by state or city, then sort providers by selected-code utilization, beneficiaries, average allowed amount, or overall Medicare FFS footprint.

National code rankState code rankProviderNPIMarketServicesBeneficiariesAverage Medicare allowedPlace of serviceProvider total services
#1,801Filter by stateMicheal P Vrabec1407883838Appleton, WI2219$637.55F3,337
#1,802Filter by stateMathew R Tempest1427020221Sandy, UT2215$591.80F1,453
#1,803Filter by statePaul H Kalina1427032325St Louis Park, MN2216$719.79O931
#1,804Filter by stateMitchell C Shultz1427153022Northridge, CA2221$757.58F3,797
#1,805Filter by stateMartha E Ryan1427443738Salinas, CA2221$790.46F3,105
#1,806Filter by stateNicholas E Neubaum1447302468Montrose, CO2219$758.39F3,229
#1,807Filter by stateRaymond Demaio1457357790Cleona, PA2215$703.23F3,492
#1,808Filter by stateJeremy Z Kieval1457537136Lexington, MA2219$808.96F2,977
#1,809Filter by stateEvan C Chang1457856759Sacramento, CA2217$816.38F3,187
#1,810Filter by stateJames W Hung1477531416Boston, MA2221$814.53F5,009
#1,811Filter by stateAllison A Pernic1497070957Warsaw, IN2218$643.97F7,899
#1,812Filter by stateMichael S Conners1497772958East Setauket, NY2216$839.93F6,372
#1,813Filter by stateStephen M Holland1508205147Springfield, IL2218$649.28F2,297
#1,814Filter by stateSusan D Fromer1508949603New York, NY2217$835.67F3,577
#1,815Filter by stateJames M Goldman1528075702Scottsdale, AZ2218$712.79F2,426
#1,816Filter by stateMark D Mayle1528131703Morgantown, WV2214$686.01F4,323
#1,817Filter by stateObinna C Umunakwe1528422615Nashville, TN2216$601.96F1,768
#1,818Filter by stateKelvin P Mcdaniel1538554258St. Louis, MO2220$625.02F2,873
#1,819Filter by stateJames D Paauw1568608966Lynchburg, VA2217$630.05F4,970
#1,820Filter by stateKourosh Dastgheib1578523593Garden Grove, CA2220$805.28F1,416
#1,821Filter by stateDavid P Lawlor1578689568Lebanon, NH2220$770.31F2,055
#1,822Filter by stateMaria M Aaron1588775548Atlanta, GA2218$737.12F1,273
#1,823Filter by stateManal Peracha-Riyaz1588907299Monroe, MI2218$658.32F2,667
#1,824Filter by stateTarika Thareja1598184673Danville, PA2218$703.46F1,157
#1,825Filter by stateLaurence D Kaye1598865289Tucson, AZ2219$726.08F2,182

Full code-specific utilization ranking

Request the full provider utilization export, named peer comparison, and code-specific market scan for this CPT/HCPCS code.

Request full code benchmark